Location: Birkenwerder
(52.6919°N, 13.2774°E)
Time: 01:52:29
(UTC+00:00)

Cosmos 1408 - Pass Details

Date: 07 June 2020
Orbit: 469 x 495 km, 82.6° (Epoch: 15 July)

Event Time Altitude Azimuth Distance (km) Brightness Sun altitude
Exits shadow 01:49:31 - 187° (S) 2,082 5.2 -6.6°
Reaches altitude 10° 01:50:28 10° 187° (S) 1,685 4.8 -6.5°
Maximum altitude 01:54:10 85° 99° (E) 500 2.7 -6.1°
Drops below altitude 10° 01:57:52 10° 12° (NNE) 1,687 6.5 -5.8°
Sets 01:59:58 0° 12° (NNE) 2,568 7.5 -5.6°
